�v������,���O�C��(��),���O���x(��),�Ɠx(lx),��O�J�Z���T�[(1:�~�J),����(m/s)
2024-02-01 00:00:00,9.8,97.5,2,0.0,0
2024-02-01 00:10:00,9.7,97.4,2,0.0,1
2024-02-01 00:20:00,9.7,97.4,2,0.0,0
2024-02-01 00:30:00,9.6,97.5,2,0.0,0
2024-02-01 00:40:00,9.8,97.5,2,0.0,1
2024-02-01 00:50:00,9.6,97.4,2,0.0,0
2024-02-01 01:00:00,9.8,97.4,2,0.0,1
2024-02-01 01:10:00,9.8,97.4,2,0.0,1
2024-02-01 01:20:00,9.8,97.5,2,0.0,1
2024-02-01 01:30:00,9.7,97.5,2,0.0,1
2024-02-01 01:40:00,9.9,97.4,2,0.0,1
2024-02-01 01:50:00,9.8,97.5,2,0.0,1
2024-02-01 02:00:00,9.9,97.4,2,0.0,1.5
2024-02-01 02:10:00,9.9,97.5,2,0.0,1.5
2024-02-01 02:20:00,10.1,97.4,0,0.0,1.5
2024-02-01 02:30:00,10.2,97.4,2,0.0,1
2024-02-01 02:40:00,10.3,97.5,2,0.0,1
2024-02-01 02:50:00,10.1,97.5,2,0.0,1
2024-02-01 03:00:00,10.1,97.5,2,0.0,1
2024-02-01 03:10:00,9.9,97.5,2,0.0,0
2024-02-01 03:20:00,10,97.5,2,0.0,0.5
2024-02-01 03:30:00,9.9,97.5,2,0.0,0
2024-02-01 03:40:00,9.9,97.5,2,0.0,0
2024-02-01 03:50:00,9.7,97.5,2,0.0,0
2024-02-01 04:00:00,10,97.5,2,0.0,1
2024-02-01 04:10:00,9.6,97.5,2,0.0,0
2024-02-01 04:20:00,9.8,97.5,2,0.0,1
2024-02-01 04:30:00,9.7,97.5,2,0.0,1
2024-02-01 04:40:00,9.8,97.5,2,0.0,0
2024-02-01 04:50:00,9.6,97.5,2,0.0,1
2024-02-01 05:00:00,9.9,97.5,2,0.0,0
2024-02-01 05:10:00,9.5,97.5,2,0.0,1
2024-02-01 05:20:00,9.7,97.5,0,0.0,1
2024-02-01 05:30:00,9.7,97.5,0,0.0,1
2024-02-01 05:40:00,9.5,97.5,2,0.0,1
2024-02-01 05:50:00,9.6,97.5,2,0.0,0
2024-02-01 06:00:00,9.7,97.5,2,0.0,1
2024-02-01 06:10:00,9.6,97.5,2,0.0,0
2024-02-01 06:20:00,9.4,97.5,2,0.0,1
2024-02-01 06:30:00,9.8,97.5,2,0.0,1
2024-02-01 06:40:00,9.5,97.5,2,0.0,1
2024-02-01 06:50:00,9.9,97.5,6,0.0,0
2024-02-01 07:00:00,9.6,97.5,36,0.0,1
2024-02-01 07:10:00,9.8,97.5,60,0.0,0
2024-02-01 07:20:00,10,97.5,221.92,0.0,0
2024-02-01 07:30:00,9.9,97.4,999.68,0.0,1
2024-02-01 07:40:00,9.7,97.4,413.76,0.0,1
2024-02-01 07:50:00,9.9,97.4,499.84,0.0,1
2024-02-01 08:00:00,9.7,97.5,1999.36,0.0,0
2024-02-01 08:10:00,9.9,97.4,1999.36,0.0,1
2024-02-01 08:20:00,10.2,97.4,1999.36,0.0,0
2024-02-01 08:30:00,10.7,97.4,999.68,1.0,2.5
2024-02-01 08:40:00,10.9,99.4,999.68,1.0,4
2024-02-01 08:50:00,11,98.5,2997.76,1.0,2
2024-02-01 09:00:00,10.7,97.6,1999.36,1.0,2.5
2024-02-01 09:10:00,11,96.5,1999.36,1.0,1
2024-02-01 09:20:00,11.1,96.1,2997.76,1.0,1
2024-02-01 09:30:00,11.1,94.5,1999.36,1.0,3
2024-02-01 09:40:00,11.2,93.1,1999.36,0.0,2.5
2024-02-01 09:50:00,11,93.6,1999.36,0.0,2
2024-02-01 10:00:00,10.8,92.8,2997.76,0.0,2.5
2024-02-01 10:10:00,10.8,93.2,2997.76,0.0,3
2024-02-01 10:20:00,10.5,94.3,6999.04,0.0,1.5
2024-02-01 10:30:00,10.5,94.9,1999.36,0.0,4
2024-02-01 10:40:00,10.6,95.6,4999.68,0.0,3
2024-02-01 10:50:00,10.6,96,5995.52,0.0,1.5
2024-02-01 11:00:00,10.7,96.4,4999.68,0.0,1
2024-02-01 11:10:00,10.6,96.7,5995.52,0.0,1
2024-02-01 11:20:00,10.7,96.9,6999.04,0.0,1.5
2024-02-01 11:30:00,10.8,96.5,11991,0.0,0
2024-02-01 11:40:00,10.7,94.3,7997.44,0.0,2
2024-02-01 11:50:00,10.9,93.5,6999.04,0.0,1
2024-02-01 12:00:00,11.1,91.1,7997.44,0.0,1
2024-02-01 12:10:00,11.2,89.3,8995.84,0.0,3
2024-02-01 12:20:00,11.5,87.5,9999.36,0.0,1
2024-02-01 12:30:00,11.6,86.2,13998.1,0.0,2
2024-02-01 12:40:00,11.6,85.6,9999.36,0.0,1
2024-02-01 12:50:00,11.4,84.6,8995.84,0.0,2
2024-02-01 13:00:00,11.5,84.6,8995.84,0.0,2
2024-02-01 13:10:00,11.6,84.2,9999.36,0.0,2
2024-02-01 13:20:00,11.5,84.8,7997.44,0.0,3
2024-02-01 13:30:00,11.6,85.4,9999.36,0.0,1
2024-02-01 13:40:00,11.7,85,7997.44,0.0,1
2024-02-01 13:50:00,11.8,85.1,8995.84,0.0,1
2024-02-01 14:00:00,11.8,84.4,10997.8,0.0,1
2024-02-01 14:10:00,11.9,84.6,15994.9,0.0,1
2024-02-01 14:20:00,11.9,84.1,6999.04,0.0,2.5
2024-02-01 14:30:00,11.6,85.3,6999.04,0.0,1
2024-02-01 14:40:00,11.7,85.5,6999.04,0.0,2
2024-02-01 14:50:00,11.4,86.3,4999.68,0.0,2
2024-02-01 15:00:00,11.6,86.7,7997.44,0.0,2
2024-02-01 15:10:00,11.5,86.3,5995.52,0.0,3
2024-02-01 15:20:00,11.9,86.4,7997.44,0.0,1
2024-02-01 15:30:00,11.9,86.3,5995.52,0.0,2
2024-02-01 15:40:00,11.5,86.7,7997.44,0.0,1
2024-02-01 15:50:00,11.7,86.6,5995.52,0.0,1
2024-02-01 16:00:00,11.8,86.2,9999.36,0.0,1
2024-02-01 16:10:00,12,86.1,8995.84,0.0,2.5
2024-02-01 16:20:00,11.9,87.3,4999.68,0.0,1
2024-02-01 16:30:00,11.4,88,3998.72,0.0,1
2024-02-01 16:40:00,11.4,88.9,2997.76,0.0,1
2024-02-01 16:50:00,11.3,90,3998.72,0.0,1
2024-02-01 17:00:00,11.4,90.6,1999.36,0.0,2.5
2024-02-01 17:10:00,11.1,91.3,999.68,0.0,3
2024-02-01 17:20:00,11,91.4,499.84,0.0,1
2024-02-01 17:30:00,11,92.1,499.84,0.0,2
2024-02-01 17:40:00,11,92.9,189.92,0.0,1
2024-02-01 17:50:00,10.9,93.5,104,0.0,1
2024-02-01 18:00:00,10.7,93.2,30,0.0,2
2024-02-01 18:10:00,10.7,93,4,0.0,1
2024-02-01 18:20:00,10.8,93.7,2,0.0,2
2024-02-01 18:30:00,10.6,94.4,2,0.0,2
2024-02-01 18:40:00,10.7,95.1,2,0.0,1
2024-02-01 18:50:00,10.4,96,2,0.0,2.5
2024-02-01 19:00:00,10.6,96.6,2,0.0,0.5
2024-02-01 19:10:00,10.6,96.9,2,0.0,1.5
2024-02-01 19:20:00,10.5,97.2,2,0.0,1
2024-02-01 19:30:00,10.5,96.9,2,0.0,2
2024-02-01 19:40:00,10.5,95.9,2,0.0,1
2024-02-01 19:50:00,10.4,94.7,2,0.0,1
2024-02-01 20:00:00,10.5,93.5,2,0.0,1
2024-02-01 20:10:00,10.5,93,2,0.0,1
2024-02-01 20:20:00,10.8,93.2,2,0.0,2
2024-02-01 20:30:00,10.6,93.5,2,0.0,1
2024-02-01 20:40:00,10.6,92.7,2,0.0,2
2024-02-01 20:50:00,10.6,92.1,2,0.0,1.5
2024-02-01 21:00:00,10.6,91.5,2,0.0,3
2024-02-01 21:10:00,10.8,90.9,2,0.0,1
2024-02-01 21:20:00,10.5,91.1,2,0.0,1
2024-02-01 21:30:00,10.6,91.9,2,1.0,1.5
2024-02-01 21:40:00,10.6,93.4,2,1.0,1
2024-02-01 21:50:00,10.2,94.4,2,1.0,3
2024-02-01 22:00:00,10.4,95.1,0,1.0,3
2024-02-01 22:10:00,10.1,95.6,0,1.0,1
2024-02-01 22:20:00,10.1,96.2,2,1.0,2
2024-02-01 22:30:00,10,97,2,1.0,1
2024-02-01 22:40:00,10,97.5,2,1.0,1
2024-02-01 22:50:00,9.9,97.8,2,1.0,1
2024-02-01 23:00:00,9.8,97.9,2,1.0,0.5
2024-02-01 23:10:00,9.8,98.2,2,1.0,1.5
2024-02-01 23:20:00,9.5,95.7,2,1.0,2
2024-02-01 23:30:00,9.3,93.4,2,1.0,1.5
2024-02-01 23:40:00,9.4,93.3,2,1.0,2.5
2024-02-01 23:50:00,9.4,92.8,2,1.0,4
2024-02-02 00:00:00,9,93,2,0.0,4
2024-02-02 00:10:00,8.9,93.6,2,0.0,3
2024-02-02 00:20:00,8.9,91.9,2,0.0,3
2024-02-02 00:30:00,9,90.9,2,0.0,3
2024-02-02 00:40:00,8.8,91,2,0.0,2
2024-02-02 00:50:00,9,89.7,2,0.0,3
2024-02-02 01:00:00,9.1,89.3,2,0.0,3
2024-02-02 01:10:00,9.1,88.2,2,0.0,4
2024-02-02 01:20:00,9.1,88.3,2,0.0,2
2024-02-02 01:30:00,8.9,88.4,2,0.0,3
2024-02-02 01:40:00,8.8,89.4,2,0.0,2
2024-02-02 01:50:00,8.9,90.1,2,0.0,1.5
2024-02-02 02:00:00,9,89.8,2,0.0,1
2024-02-02 02:10:00,8.9,89.3,2,0.0,2.5
2024-02-02 02:20:00,8.8,88.6,2,0.0,3.5
2024-02-02 02:30:00,8.7,87.3,0,0.0,3.5
2024-02-02 02:40:00,8.7,87,2,0.0,2
2024-02-02 02:50:00,8.6,87.6,0,0.0,2
2024-02-02 03:00:00,8.6,86.1,2,0.0,2
2024-02-02 03:10:00,8.4,86.1,2,0.0,3
2024-02-02 03:20:00,8.5,85,0,0.0,2
2024-02-02 03:30:00,8.4,84.6,2,0.0,2
2024-02-02 03:40:00,8.3,83.7,2,0.0,4
2024-02-02 03:50:00,8.1,83.2,0,0.0,2
2024-02-02 04:00:00,8.2,84.1,2,0.0,2.5
2024-02-02 04:10:00,8.1,84,2,0.0,1
2024-02-02 04:20:00,8.3,83.8,2,0.0,3
2024-02-02 04:30:00,8.1,83.7,2,0.0,3
2024-02-02 04:40:00,8,83.2,2,0.0,2
2024-02-02 04:50:00,8.2,82.4,2,0.0,3.5
2024-02-02 05:00:00,8.1,81.8,2,0.0,1
2024-02-02 05:10:00,8.2,81.9,2,0.0,1
2024-02-02 05:20:00,8.1,82.6,2,0.0,1
2024-02-02 05:30:00,8,82.7,2,0.0,2.5
2024-02-02 05:40:00,8,80.8,2,0.0,2.5
2024-02-02 05:50:00,8,81.2,2,0.0,1
2024-02-02 06:00:00,8.1,81.4,2,0.0,2
2024-02-02 06:10:00,8.1,81.9,2,0.0,2
2024-02-02 06:20:00,7.9,81.5,2,0.0,1
2024-02-02 06:30:00,7.8,82.1,2,0.0,1
2024-02-02 06:40:00,8,81.5,2,0.0,1
2024-02-02 06:50:00,7.8,81.6,4,0.0,1
2024-02-02 07:00:00,7.8,81.8,26,0.0,2
2024-02-02 07:10:00,7.7,81.7,114,0.0,2
2024-02-02 07:20:00,7.8,81.3,309.92,0.0,3
2024-02-02 07:30:00,7.9,82,499.84,0.0,2
2024-02-02 07:40:00,7.7,81.6,999.68,0.0,1
2024-02-02 07:50:00,7.7,81.8,1999.36,0.0,1
2024-02-02 08:00:00,7.7,81.2,999.68,0.0,2
2024-02-02 08:10:00,7.7,81.1,999.68,0.0,1
2024-02-02 08:20:00,7.6,81.1,999.68,0.0,3
2024-02-02 08:30:00,7.7,81.5,999.68,0.0,2.5
2024-02-02 08:40:00,7.6,81.4,1999.36,0.0,2
2024-02-02 08:50:00,7.8,82.1,1999.36,0.0,1.5
2024-02-02 09:00:00,7.7,82.9,1999.36,0.0,3
2024-02-02 09:10:00,7.5,82.8,999.68,0.0,1
2024-02-02 09:20:00,7.4,83.1,2997.76,0.0,2
2024-02-02 09:30:00,7.4,83.2,4999.68,0.0,1.5
2024-02-02 09:40:00,7.4,82.2,4999.68,0.0,1.5
2024-02-02 09:50:00,7.2,82.2,4999.68,0.0,2
2024-02-02 10:00:00,7.3,82.2,6999.04,0.0,1
2024-02-02 10:10:00,7.4,82.4,8995.84,0.0,4
2024-02-02 10:20:00,7.7,81.7,8995.84,0.0,3
2024-02-02 10:30:00,7.6,81.6,10997.8,0.0,1
2024-02-02 10:40:00,7.5,80.7,7997.44,0.0,2
2024-02-02 10:50:00,7.7,80.5,17991.7,0.0,2
2024-02-02 11:00:00,8.1,79.2,23982.1,0.0,2
2024-02-02 11:10:00,8,78.8,15994.9,0.0,3
2024-02-02 11:20:00,8.1,79.3,12994.6,0.0,2
2024-02-02 11:30:00,7.9,78.8,19998.7,0.0,2.5
2024-02-02 11:40:00,8,78,18995.2,0.0,2
2024-02-02 11:50:00,8.1,78.3,15994.9,0.0,2
2024-02-02 12:00:00,8,78.4,22999,0.0,2
2024-02-02 12:10:00,7.9,78.7,15994.9,0.0,1
2024-02-02 12:20:00,8.3,78.8,20992,0.0,1.5
2024-02-02 12:30:00,8.2,78.3,18995.2,0.0,1
2024-02-02 12:40:00,8.2,78.7,22999,0.0,1
2024-02-02 12:50:00,8.1,77.7,15994.9,0.0,2
2024-02-02 13:00:00,8.1,78.6,13998.1,0.0,3
2024-02-02 13:10:00,8.2,79.7,12994.6,0.0,3
2024-02-02 13:20:00,8.1,79.7,6999.04,0.0,1
2024-02-02 13:30:00,8.2,79.2,9999.36,0.0,2
2024-02-02 13:40:00,8.4,78.8,7997.44,0.0,2
2024-02-02 13:50:00,8.5,79.8,9999.36,0.0,1
2024-02-02 14:00:00,8.1,79.3,8995.84,0.0,2
2024-02-02 14:10:00,8.1,79.6,10997.8,0.0,2.5
2024-02-02 14:20:00,8.4,79.1,10997.8,0.0,1
2024-02-02 14:30:00,8.5,78,11991,0.0,1
2024-02-02 14:40:00,8.3,77.3,10997.8,0.0,2
2024-02-02 14:50:00,8.5,76.5,15994.9,0.0,1.5
2024-02-02 15:00:00,8.8,76.1,8995.84,0.0,1
2024-02-02 15:10:00,8.5,75.8,11991,0.0,1
2024-02-02 15:20:00,8.8,77.7,12994.6,0.0,2
2024-02-02 15:30:00,8.7,77.7,12994.6,0.0,1
2024-02-02 15:40:00,8.8,77.1,20992,0.0,1.5
2024-02-02 15:50:00,8.7,76.4,12994.6,0.0,1
2024-02-02 16:00:00,8.9,75.7,10997.8,0.0,0.5
2024-02-02 16:10:00,9.4,75,16496.6,0.0,1
2024-02-02 16:20:00,9.1,70.3,8995.84,0.0,1
2024-02-02 16:30:00,9,63.5,7997.44,0.0,2
2024-02-02 16:40:00,8.8,66.9,7997.44,0.0,2
2024-02-02 16:50:00,8.9,68.3,5995.52,0.0,1
2024-02-02 17:00:00,8.7,69.7,4999.68,0.0,1.5
2024-02-02 17:10:00,8.6,70.6,2997.76,0.0,1
2024-02-02 17:20:00,8.5,71.2,4999.68,0.0,1
2024-02-02 17:30:00,8.5,71.6,2997.76,0.0,1
2024-02-02 17:40:00,8.5,72.4,999.68,0.0,1
2024-02-02 17:50:00,8.3,74.4,999.68,0.0,1
2024-02-02 18:00:00,8.3,74.8,156,0.0,0
2024-02-02 18:10:00,8,76.2,26,0.0,0
2024-02-02 18:20:00,7.8,77.1,2,0.0,0
2024-02-02 18:30:00,7.6,77.9,2,0.0,1
2024-02-02 18:40:00,7.5,78.7,2,0.0,1
2024-02-02 18:50:00,7.3,79.8,2,0.0,1
2024-02-02 19:00:00,7.2,82.1,2,0.0,1
2024-02-02 19:10:00,7,82.8,2,0.0,0
2024-02-02 19:20:00,7,83.7,2,0.0,0
2024-02-02 19:30:00,6.7,85.7,2,0.0,1
2024-02-02 19:40:00,6.6,87.3,2,0.0,1
2024-02-02 19:50:00,6.5,88.6,2,0.0,1
2024-02-02 20:00:00,6,89.5,2,0.0,1
2024-02-02 20:10:00,6,91.2,0,0.0,0
2024-02-02 20:20:00,6.2,93.4,2,0.0,1
2024-02-02 20:30:00,6,94.4,0,0.0,1
2024-02-02 20:40:00,6,95.4,0,0.0,1
2024-02-02 20:50:00,5.9,96.2,0,0.0,1
2024-02-02 21:00:00,5.7,96.6,0,0.0,1
2024-02-02 21:10:00,5.6,97,0,0.0,0
2024-02-02 21:20:00,5.3,98,0,0.0,1
2024-02-02 21:30:00,5.5,98.6,0,0.0,0
2024-02-02 21:40:00,5.3,98.8,0,0.0,1
2024-02-02 21:50:00,4.9,99.2,0,0.0,1
2024-02-02 22:00:00,5,99.4,0,0.0,1
2024-02-02 22:10:00,5.1,99.7,0,0.0,1
2024-02-02 22:20:00,5,99.8,0,0.0,1
2024-02-02 22:30:00,4.9,99.8,0,0.0,1
2024-02-02 22:40:00,5,99.8,0,0.0,1
2024-02-02 22:50:00,4.6,99.9,0,0.0,1
2024-02-02 23:00:00,4.5,100,0,0.0,1
2024-02-02 23:10:00,4.6,100,0,0.0,1
2024-02-02 23:20:00,4.2,100,0,0.0,1
2024-02-02 23:30:00,4.4,100,0,0.0,1
2024-02-02 23:40:00,4.4,100,0,0.0,1.5
2024-02-02 23:50:00,4.3,100,0,0.0,1
2024-02-03 00:00:00,4.3,100,0,0.0,0
2024-02-03 00:10:00,4.4,100,0,0.0,1
2024-02-03 00:20:00,4.4,100,2,0.0,1
2024-02-03 00:30:00,4.4,100,0,0.0,1
2024-02-03 00:40:00,4.4,100,0,0.0,2
2024-02-03 00:50:00,4.5,100,0,0.0,1
2024-02-03 01:00:00,4.3,99.9,0,0.0,1
2024-02-03 01:10:00,4.4,99.6,0,0.0,1
2024-02-03 01:20:00,4.2,99.8,0,0.0,1
2024-02-03 01:30:00,4.4,99.8,0,0.0,1
2024-02-03 01:40:00,4.1,99.9,0,0.0,0
2024-02-03 01:50:00,4.3,99.7,0,0.0,1
2024-02-03 02:00:00,4.3,99.8,0,0.0,1
2024-02-03 02:10:00,4.1,99.9,0,0.0,1
2024-02-03 02:20:00,4.3,100,0,0.0,1
2024-02-03 02:30:00,4.3,100,2,0.0,1
2024-02-03 02:40:00,4.5,99.9,2,0.0,1
2024-02-03 02:50:00,4.4,99.4,0,0.0,0
2024-02-03 03:00:00,5.2,91.1,0,0.0,2
2024-02-03 03:10:00,6,81.1,0,0.0,1
2024-02-03 03:20:00,6,80.1,0,0.0,1
2024-02-03 03:30:00,5.9,79.7,2,0.0,1
2024-02-03 03:40:00,6.1,79.7,0,0.0,1
2024-02-03 03:50:00,6,79.2,0,0.0,1
2024-02-03 04:00:00,6.1,78.8,2,0.0,1
2024-02-03 04:10:00,6.2,78.5,0,0.0,2
2024-02-03 04:20:00,6,78.9,0,0.0,1
2024-02-03 04:30:00,6,79.4,0,0.0,2
2024-02-03 04:40:00,5.8,79.7,0,0.0,1
2024-02-03 04:50:00,5.7,79.8,0,0.0,2
2024-02-03 05:00:00,5.6,80.2,0,0.0,0
2024-02-03 05:10:00,5.7,81,0,0.0,1
2024-02-03 05:20:00,5.5,81.3,0,0.0,1
2024-02-03 05:30:00,5.3,81.5,0,0.0,1
2024-02-03 05:40:00,5.6,81.1,0,0.0,2
2024-02-03 05:50:00,5.4,82.5,0,0.0,1
2024-02-03 06:00:00,5.6,81.8,0,0.0,3
2024-02-03 06:10:00,5.5,82.8,0,0.0,1.5
2024-02-03 06:20:00,5.4,83.1,0,0.0,0.5
2024-02-03 06:30:00,4.7,86.2,2,0.0,1
2024-02-03 06:40:00,4.2,88.7,4,0.0,1
2024-02-03 06:50:00,4.1,90.6,38,0.0,1
2024-02-03 07:00:00,3.5,92.5,229.92,0.0,1
2024-02-03 07:10:00,3.5,93.8,999.68,0.0,1
2024-02-03 07:20:00,3.6,94.1,999.68,0.0,0
2024-02-03 07:30:00,3.4,94.6,2997.76,0.0,1
2024-02-03 07:40:00,3.4,95.3,2997.76,0.0,0
2024-02-03 07:50:00,3.4,95.5,2997.76,0.0,0
2024-02-03 08:00:00,3.9,95,1999.36,0.0,1
2024-02-03 08:10:00,4,95,1999.36,0.0,1
2024-02-03 08:20:00,4.2,93.7,1999.36,0.0,0.5
2024-02-03 08:30:00,4.2,92.6,2997.76,0.0,1
2024-02-03 08:40:00,4.2,91.9,3998.72,0.0,1
2024-02-03 08:50:00,4.3,92.2,5995.52,0.0,1
2024-02-03 09:00:00,4.4,91.2,6999.04,0.0,1
2024-02-03 09:10:00,4.9,89.8,5995.52,0.0,1
2024-02-03 09:20:00,5.1,88.4,7997.44,0.0,1
2024-02-03 09:30:00,5.6,86.3,10997.8,0.0,0
2024-02-03 09:40:00,5.8,84.3,6999.04,0.0,1
2024-02-03 09:50:00,6.1,83.4,5995.52,0.0,1
2024-02-03 10:00:00,6.2,81.6,5995.52,0.0,1
2024-02-03 10:10:00,6.4,80.8,8995.84,0.0,0.5
2024-02-03 10:20:00,6.5,80.4,8995.84,0.0,0
2024-02-03 10:30:00,7,76.9,7997.44,0.0,1
2024-02-03 10:40:00,6.9,75.7,7997.44,0.0,1
2024-02-03 10:50:00,6.8,73,9999.36,0.0,1
2024-02-03 11:00:00,6.7,72.5,9999.36,0.0,1
2024-02-03 11:10:00,6.9,72.7,7997.44,0.0,2
2024-02-03 11:20:00,6.7,72.7,5995.52,0.0,1
2024-02-03 11:30:00,6.9,73.2,5995.52,0.0,1
2024-02-03 11:40:00,6.9,73.6,4999.68,0.0,1
2024-02-03 11:50:00,6.9,73.9,6999.04,0.0,1
2024-02-03 12:00:00,7,74.2,7997.44,0.0,1
2024-02-03 12:10:00,7.2,73.3,7997.44,0.0,1
2024-02-03 12:20:00,7.2,73.2,5995.52,0.0,2
2024-02-03 12:30:00,7.3,73.1,5995.52,0.0,1
2024-02-03 12:40:00,7.4,72.5,4999.68,0.0,1
2024-02-03 12:50:00,7.5,72.7,3998.72,0.0,1
2024-02-03 13:00:00,7.3,73,4999.68,0.0,0
2024-02-03 13:10:00,7.7,73.8,3998.72,0.0,1
2024-02-03 13:20:00,7.3,73.8,4999.68,0.0,2
2024-02-03 13:30:00,7.5,73.5,4999.68,0.0,2
2024-02-03 13:40:00,7.6,73.1,5995.52,0.0,0.5
2024-02-03 13:50:00,7.5,73.2,4999.68,0.0,1.5
2024-02-03 14:00:00,7.4,73.3,3998.72,0.0,2
2024-02-03 14:10:00,7.2,74.5,3998.72,0.0,1
2024-02-03 14:20:00,7.1,75,3998.72,0.0,3
2024-02-03 14:30:00,7.2,74.9,2997.76,0.0,1
2024-02-03 14:40:00,7,74.3,2997.76,0.0,1
2024-02-03 14:50:00,7,74.8,3998.72,0.0,1
2024-02-03 15:00:00,6.9,76.1,4999.68,0.0,1
2024-02-03 15:10:00,6.8,76.4,2997.76,0.0,2
2024-02-03 15:20:00,6.6,77.3,4999.68,0.0,2
2024-02-03 15:30:00,6.6,80.4,2997.76,1.0,1
2024-02-03 15:40:00,6.4,79.5,1999.36,0.0,2
2024-02-03 15:50:00,6.6,80.2,1999.36,1.0,0
2024-02-03 16:00:00,6.4,82.2,1999.36,1.0,1
2024-02-03 16:10:00,6.5,84.9,2997.76,1.0,1
2024-02-03 16:20:00,6.4,86.1,1999.36,1.0,1
2024-02-03 16:30:00,5.9,87.1,999.68,1.0,0
2024-02-03 16:40:00,6,88.3,999.68,1.0,1
2024-02-03 16:50:00,6.1,89.1,999.68,1.0,2
2024-02-03 17:00:00,5.9,89.7,999.68,1.0,0
2024-02-03 17:10:00,6.1,89.9,273.92,1.0,1
2024-02-03 17:20:00,5.9,92.3,164,1.0,1
2024-02-03 17:30:00,5.9,94.3,114,1.0,1
2024-02-03 17:40:00,5.7,97.2,52,1.0,2
2024-02-03 17:50:00,5.5,98.4,22,1.0,1
2024-02-03 18:00:00,5.6,99.3,8,1.0,1
2024-02-03 18:10:00,5.4,99.9,2,1.0,1
2024-02-03 18:20:00,5.4,99.6,2,1.0,1
2024-02-03 18:30:00,5.4,99.1,2,1.0,2
2024-02-03 18:40:00,5.3,99,2,1.0,0
2024-02-03 18:50:00,5.2,98.8,2,1.0,1
2024-02-03 19:00:00,5.1,98.7,2,1.0,1
2024-02-03 19:10:00,4.8,98.7,2,1.0,1
2024-02-03 19:20:00,4.7,98.7,2,1.0,1
2024-02-03 19:30:00,4.7,98.7,2,1.0,1
2024-02-03 19:40:00,4.7,98.7,2,1.0,0
2024-02-03 19:50:00,4.8,98.7,2,1.0,0
2024-02-03 20:00:00,4.7,98.6,2,1.0,0
2024-02-03 20:10:00,4.8,98.6,2,1.0,0
2024-02-03 20:20:00,4.8,98.6,2,1.0,1
2024-02-03 20:30:00,4.8,98.6,2,1.0,0
2024-02-03 20:40:00,5,98.6,2,1.0,0
2024-02-03 20:50:00,4.9,98.6,2,1.0,1
2024-02-03 21:00:00,5,98.5,2,1.0,0
2024-02-03 21:10:00,5,98.5,2,1.0,1
2024-02-03 21:20:00,5,98.5,2,1.0,1
2024-02-03 21:30:00,5,98.5,2,1.0,1
2024-02-03 21:40:00,5,98.5,2,1.0,0
2024-02-03 21:50:00,5,98.5,2,1.0,1
2024-02-03 22:00:00,5,98.4,2,1.0,0
2024-02-03 22:10:00,5,98.5,2,1.0,1
2024-02-03 22:20:00,4.9,98.5,2,1.0,1
2024-02-03 22:30:00,5.2,98.4,2,1.0,1
2024-02-03 22:40:00,4.8,98.5,2,1.0,1
2024-02-03 22:50:00,5,98.5,2,1.0,1
2024-02-03 23:00:00,5,98.4,2,1.0,1
2024-02-03 23:10:00,5.3,98.4,2,1.0,1
2024-02-03 23:20:00,5.1,98.4,2,1.0,0
2024-02-03 23:30:00,5,98.4,2,1.0,0
2024-02-03 23:40:00,5.3,98.4,2,1.0,1
2024-02-03 23:50:00,5.3,98.4,2,1.0,1
2024-02-04 00:00:00,5.2,98.4,2,1.0,1
2024-02-04 00:10:00,5.3,98.4,2,1.0,1
2024-02-04 00:20:00,5.5,98.4,2,1.0,0
2024-02-04 00:30:00,5.2,98.4,2,1.0,1
2024-02-04 00:40:00,5.4,98.3,2,1.0,1
2024-02-04 00:50:00,5.2,98.3,2,1.0,1
2024-02-04 01:00:00,5.3,98.4,2,1.0,0
2024-02-04 01:10:00,5.3,98.3,2,1.0,1
2024-02-04 01:20:00,5.4,98.4,2,1.0,0
2024-02-04 01:30:00,5.3,98.3,2,1.0,0
2024-02-04 01:40:00,5.5,98.3,2,1.0,0.5
2024-02-04 01:50:00,5.6,98.3,2,1.0,0
2024-02-04 02:00:00,5.6,98.3,2,1.0,0
2024-02-04 02:10:00,5.5,98.3,2,1.0,0
2024-02-04 02:20:00,5.5,98.3,2,1.0,0
2024-02-04 02:30:00,5.6,98.3,2,1.0,0
2024-02-04 02:40:00,5.5,98.3,2,1.0,0
2024-02-04 02:50:00,5.6,98.2,2,1.0,1
2024-02-04 03:00:00,5.8,98.3,2,1.0,1.5
2024-02-04 03:10:00,5.8,98.3,2,1.0,1
2024-02-04 03:20:00,5.8,98.3,2,0.0,1
2024-02-04 03:30:00,5.9,98.3,2,0.0,1
2024-02-04 03:40:00,6,98.3,2,0.0,1
2024-02-04 03:50:00,6,98.3,2,1.0,0
2024-02-04 04:00:00,6.2,98.3,0,1.0,1
2024-02-04 04:10:00,6,98.3,2,1.0,1
2024-02-04 04:20:00,6,98.3,2,1.0,0
2024-02-04 04:30:00,6.2,98.3,2,1.0,0.5
2024-02-04 04:40:00,6,98.3,2,1.0,1
2024-02-04 04:50:00,6,98.3,2,1.0,2
2024-02-04 05:00:00,5.9,98.3,2,1.0,1
2024-02-04 05:10:00,5.8,98.3,2,1.0,1
2024-02-04 05:20:00,5.8,98.3,2,1.0,1
2024-02-04 05:30:00,6.1,98.3,0,1.0,2
2024-02-04 05:40:00,5.9,98.3,0,1.0,0
2024-02-04 05:50:00,5.9,98.3,2,1.0,1
2024-02-04 06:00:00,5.8,98.3,2,1.0,1
2024-02-04 06:10:00,6.1,98.3,2,1.0,1
2024-02-04 06:20:00,6,98.3,2,1.0,1
2024-02-04 06:30:00,5.9,98.3,2,1.0,1.5
2024-02-04 06:40:00,5.9,98.2,2,1.0,1
2024-02-04 06:50:00,6.2,98.3,2,1.0,1
2024-02-04 07:00:00,6.1,98.2,8,1.0,1
2024-02-04 07:10:00,6.1,98.2,24,1.0,1
2024-02-04 07:20:00,6.1,98.2,72,1.0,1
2024-02-04 07:30:00,6.2,98.2,120,1.0,0
2024-02-04 07:40:00,6.2,98.2,221.92,1.0,1
2024-02-04 07:50:00,6.3,98.2,341.76,1.0,1
2024-02-04 08:00:00,6.4,98.2,361.92,1.0,1
2024-02-04 08:10:00,6.2,98.2,441.92,1.0,1
2024-02-04 08:20:00,6.2,98.2,499.84,1.0,0
2024-02-04 08:30:00,6.4,98.2,499.84,0.0,0
2024-02-04 08:40:00,6.3,98.2,999.68,0.0,0.5
2024-02-04 08:50:00,6.3,98.2,999.68,0.0,0
2024-02-04 09:00:00,6.6,98.2,999.68,0.0,1
2024-02-04 09:10:00,6.6,98.2,999.68,1.0,1
2024-02-04 09:20:00,6.6,98.2,999.68,1.0,1
2024-02-04 09:30:00,6.6,98.2,1999.36,1.0,0.5
2024-02-04 09:40:00,6.6,98.2,1999.36,1.0,1
2024-02-04 09:50:00,6.6,98.2,1498.88,1.0,1
2024-02-04 10:00:00,6.6,98.1,1498.88,1.0,1
2024-02-04 10:10:00,6.7,98.1,1999.36,1.0,1
2024-02-04 10:20:00,6.6,98.1,2997.76,1.0,1
2024-02-04 10:30:00,6.7,98.2,1999.36,1.0,1
2024-02-04 10:40:00,6.8,98.1,1999.36,1.0,1
2024-02-04 10:50:00,6.8,98.1,2997.76,0.0,1
2024-02-04 11:00:00,7,98.1,2997.76,0.0,0
2024-02-04 11:10:00,6.9,98.1,3998.72,0.0,0
2024-02-04 11:20:00,7,98,2997.76,0.0,0
2024-02-04 11:30:00,7.1,98,2997.76,0.0,1
2024-02-04 11:40:00,7.2,98,2997.76,0.0,0
2024-02-04 11:50:00,7.2,98,2997.76,0.0,0
2024-02-04 12:00:00,7.2,98,2997.76,0.0,1
2024-02-04 12:10:00,7.1,98,2997.76,0.0,0
2024-02-04 12:20:00,7.2,98,2997.76,0.0,0
2024-02-04 12:30:00,7.4,98,4999.68,0.0,0
2024-02-04 12:40:00,7.3,98,3998.72,0.0,0
2024-02-04 12:50:00,7.2,97.9,2997.76,0.0,0
2024-02-04 13:00:00,7.2,98,2997.76,0.0,0
2024-02-04 13:10:00,7.2,98,3998.72,0.0,1
2024-02-04 13:20:00,7.2,98.1,2997.76,0.0,1
2024-02-04 13:30:00,7.3,98.2,2997.76,0.0,0
2024-02-04 13:40:00,7.1,98.2,3998.72,0.0,0
2024-02-04 13:50:00,7.3,98.5,2997.76,0.0,1
2024-02-04 14:00:00,7.6,98.9,2997.76,0.0,2
2024-02-04 14:10:00,7.6,99.2,1999.36,0.0,0
2024-02-04 14:20:00,7.5,99.7,2997.76,0.0,0.5
2024-02-04 14:30:00,7.9,99,3998.72,0.0,0
2024-02-04 14:40:00,7.6,98.4,2997.76,0.0,2
2024-02-04 14:50:00,7.6,98,2997.76,0.0,1
2024-02-04 15:00:00,7.7,97.8,1999.36,0.0,1
2024-02-04 15:10:00,7.9,97.3,1999.36,0.0,1
2024-02-04 15:20:00,7.8,96.4,1999.36,0.0,1
2024-02-04 15:30:00,7.8,95.4,2997.76,0.0,1
2024-02-04 15:40:00,8,95.3,1999.36,0.0,1
2024-02-04 15:50:00,7.9,95.5,999.68,0.0,1
2024-02-04 16:00:00,7.9,95.1,1999.36,0.0,2
2024-02-04 16:10:00,7.9,95,1999.36,0.0,1
2024-02-04 16:20:00,8,95.6,1999.36,0.0,2
2024-02-04 16:30:00,7.8,96,1999.36,0.0,1
2024-02-04 16:40:00,7.8,96.7,1999.36,0.0,1
2024-02-04 16:50:00,7.7,96.6,1999.36,0.0,3
2024-02-04 17:00:00,7.8,96.4,999.68,0.0,0
2024-02-04 17:10:00,7.8,96,999.68,0.0,0
2024-02-04 17:20:00,7.8,95.9,999.68,0.0,1
2024-02-04 17:30:00,7.6,95.8,448,0.0,0
2024-02-04 17:40:00,7.8,95.8,281.92,0.0,0
2024-02-04 17:50:00,7.9,95.7,104,0.0,1
2024-02-04 18:00:00,7.8,95.5,38,0.0,0
2024-02-04 18:10:00,7.6,95.3,6,0.0,0
2024-02-04 18:20:00,8,95.1,2,0.0,0
2024-02-04 18:30:00,7.8,94.1,2,0.0,1
2024-02-04 18:40:00,7.9,93.1,2,0.0,0
2024-02-04 18:50:00,8.2,92.2,2,0.0,1
2024-02-04 19:00:00,7.9,95.6,2,0.0,1
2024-02-04 19:10:00,7.8,97.7,2,0.0,0
2024-02-04 19:20:00,7.8,98.4,2,0.0,1
2024-02-04 19:30:00,7.7,99.1,2,0.0,1
2024-02-04 19:40:00,7.6,99.8,2,0.0,1
2024-02-04 19:50:00,7.7,99.1,2,0.0,1
2024-02-04 20:00:00,7.5,98.8,2,0.0,0
2024-02-04 20:10:00,7.4,98.7,2,0.0,1
2024-02-04 20:20:00,7.3,98.7,2,0.0,1
2024-02-04 20:30:00,7.2,98.6,2,0.0,1
2024-02-04 20:40:00,7.4,98.5,2,0.0,1
2024-02-04 20:50:00,7.3,98.4,2,0.0,1
2024-02-04 21:00:00,7.3,98.4,2,0.0,1
2024-02-04 21:10:00,7.4,98.3,2,0.0,1
2024-02-04 21:20:00,7.2,98.3,2,0.0,1
2024-02-04 21:30:00,7.2,98.3,2,0.0,1
2024-02-04 21:40:00,7.2,98.3,2,0.0,1
2024-02-04 21:50:00,7.1,98.3,2,0.0,1
2024-02-04 22:00:00,7.1,98.3,2,0.0,1
2024-02-04 22:10:00,7.1,98.3,2,0.0,1
2024-02-04 22:20:00,7.1,98.3,2,0.0,1
2024-02-04 22:30:00,7.1,98.3,2,0.0,1
2024-02-04 22:40:00,7.1,98.3,2,0.0,1
2024-02-04 22:50:00,7.2,98.2,2,0.0,2
2024-02-04 23:00:00,6.9,98.2,2,0.0,1
2024-02-04 23:10:00,7,98.3,2,0.0,0
2024-02-04 23:20:00,7.2,98.3,2,0.0,1
2024-02-04 23:30:00,7,98.3,2,0.0,0.5
2024-02-04 23:40:00,6.9,98.2,2,0.0,1
2024-02-04 23:50:00,7,98.3,2,0.0,1
2024-02-05 00:00:00,7,98.3,2,0.0,1
2024-02-05 00:10:00,7.2,98.3,2,0.0,1
2024-02-05 00:20:00,7,98.4,2,0.0,0
2024-02-05 00:30:00,7.1,98.4,2,1.0,1.5
2024-02-05 00:40:00,6.8,98.4,2,1.0,1
2024-02-05 00:50:00,6.9,98.3,2,1.0,1
2024-02-05 01:00:00,7.1,98.2,2,1.0,0.5
2024-02-05 01:10:00,6.9,98.2,2,1.0,1
2024-02-05 01:20:00,6.9,98.2,2,1.0,0
2024-02-05 01:30:00,6.9,98.2,2,1.0,1
2024-02-05 01:40:00,6.9,98.1,2,1.0,0
2024-02-05 01:50:00,6.8,98.1,2,1.0,1
2024-02-05 02:00:00,6.7,98.1,2,1.0,1
2024-02-05 02:10:00,6.9,98.1,2,1.0,1
2024-02-05 02:20:00,6.9,98.1,2,0.0,1
2024-02-05 02:30:00,6.9,98.1,2,1.0,0